Flag for Germany Weather past 2 weeks in Vreden, North Rhine-Westphalia, Germany

Now
50 °F

Cool.


Feels Like: 50 °F
Forecast: 63 / 85 °F
Wind: 1 mph from Southeast

Location: Rheine-Bentlage

Current Time: Aug 29, 2015 at 8:35:23 AM

Latest Report: Aug 29, 2015 at 7:20 AM


Visibility: N/A

Pressure: 30.21 "Hg

Humidity: 100%

Dew point: 50 °F

Location of VredenLocation

Historic Weather in Vreden — Graph

°F

Vreden temperature yesterday

Maximum temperature yesterday: 70 °F (at 4:20 PM)
Minimum temperature yesterday: 55 °F (at 12:20 AM)
Average temperature yesterday: 60 °F

Past Weeks' High & Low Weather Summary

 TemperatureHumidityPressure
High79 °F (Aug 14, 2:20 PM)100% (Aug 16, 4:20 AM)30.27 "Hg (Aug 16, 4:20 AM)
Low48 °F (Aug 29, 4:20 AM)34% (Aug 22, 4:20 PM)29.50 "Hg (Aug 24, 6:20 PM)
Average64 °F78%29.93 "Hg
* Reported Aug 14 7:20 AM — Aug 29 7:20 AM, Vreden, Weather by CustomWeather, © 2015

Note: Actual official high and low records may vary slightly from our data, if they occured in-between our weather recording intervals... More about our weather records

Advertising

Vreden weather history for previous 24 hours

 ConditionsComfort  
Time TempWeatherWind HumidityBarometerVisibility
7:20 AM
Sat, Aug 29
50 °FCool.1 mph100%30.21 "HgN/A
6:20 AM50 °FCool.2 mph100%30.21 "HgN/A
5:20 AM50 °FCool.2 mph100%30.18 "HgN/A
4:20 AM48 °FCool.No wind100%30.21 "HgN/A
3:20 AM50 °FCool.2 mph100%30.18 "HgN/A
2:20 AM52 °FCool.1 mph100%30.18 "HgN/A
1:20 AM52 °FCool.No wind100%30.18 "HgN/A
12:20 AM54 °FCool.No wind100%30.18 "HgN/A
11:20 PM
Fri, Aug 28
55 °FCool.No wind94%30.15 "HgN/A
10:20 PM57 °FCool.No wind94%30.15 "HgN/A
9:20 PM57 °FCool.1 mph94%30.12 "HgN/A
8:20 PM61 °FCool.No wind83%30.12 "HgN/A
7:20 PM66 °FMild.5 mph68%30.09 "HgN/A
6:20 PM66 °FMild.8 mph64%30.09 "HgN/A
5:20 PM68 °FMild.8 mph60%30.07 "HgN/A
4:20 PM70 °FMild.8 mph57%30.07 "HgN/A
3:20 PM68 °FMild.7 mph60%30.07 "HgN/A
2:20 PM66 °FMild.10 mph64%30.07 "HgN/A
1:20 PM63 °FMild.8 mph77%30.07 "HgN/A
12:20 PM63 °FPartly sunny.8 mph77%30.04 "Hg4 mi
11:20 AM61 °FPartly sunny.8 mph83%30.04 "Hg4 mi
10:20 AM59 °FFog.6 mph88%30.04 "Hg3 mi
9:20 AM57 °FFog.6 mph88%30.01 "Hg3 mi
8:20 AM55 °FFog.5 mph94%30.01 "Hg3 mi
Weather by CustomWeather, © 2015

See weather overviewHow to use our weather pages